Snow/Ice From: 16-12-2017 16:00 Until: 17-12-2017 16:00 warning for: Snow/Ice Level: Yellow info button

Although rather usual in this region, locally or potentially dangerous phenomena are expected. (such as local winds, summer thunderstorms, rising streams or high waves) Be aware and pay attention to the latest weather updates, especially if you carry out activities exposed to weather or close to a stream or shoreline. 


Meteo18 Weather Cam more information Meteo18 Weather Cam


Thunder radar more information blitzortung!


warning for Snow/Ice more information rain snow radar


Visit our other weather sites:

Template documentation
and downloads

And another site



Weather Underground History page Text

Daily Summary for July 12, 2017 Units:  English    Metric   Both
« Previous Day
Next Day »
Daily Weekly Monthly Yearly Custom
  High: Low: Average:
Temperature: 71.2 °F 61.7 °F 65.8 °F
Dew Point: 64 °F 56.3 °F 60.1 °F
Humidity: 93 % 68 % 82 %
Wind Speed: 15 mph 0 mph 5.8 mph
Wind Gust: 26 mph - -
Wind:- - WSW
Pressure: 30.2 in 30 in -
Precipitation: 0.04 in    
Historical Graphs
 
 
Tabular Data for July 12, 2017
Time Temperature Dew Point Pressure Wind Wind Speed Wind Gust Humidity Rainfall Rate (Hourly)
00:02 65.7 °F 57.2 °F 30 in Calm   6 mph 74 % 0 in
00:07 65.5 °F 57.4 °F 30 in Calm   5 mph 75 % 0 in
00:12 65.1 °F 57 °F 30 in SW 1 mph 3 mph 75 % 0 in
00:17 65.1 °F 57 °F 30 in Calm   1 mph 75 % 0 in
00:22 65.1 °F 57 °F 30 in SW 1 mph 1 mph 75 % 0 in
00:32 64.8 °F 57 °F 30 in Calm   2 mph 76 % 0 in
00:37 64.4 °F 56.7 °F 30 in SW 2 mph 3 mph 76 % 0 in
00:42 64 °F 56.7 °F 30 in South 2 mph 3 mph 77 % 0 in
00:52 64.4 °F 56.7 °F 30 in Calm   6 mph 76 % 0 in
00:57 64 °F 56.7 °F 30 in Calm   6 mph 77 % 0 in
01:02 63.7 °F 56.3 °F 30 in East 1 mph 6 mph 77 % 0 in
01:07 63.3 °F 56.3 °F 30 in SE 1 mph 4 mph 78 % 0 in
01:12 63.1 °F 56.5 °F 30 in Calm   4 mph 79 % 0 in
01:17 63.1 °F 56.5 °F 30 in Calm   4 mph 79 % 0 in
01:22 63.1 °F 56.5 °F 30 in Calm   4 mph 79 % 0 in
01:27 63 °F 56.3 °F 30 in Calm   3 mph 79 % 0 in
01:32 63 °F 56.3 °F 30 in Calm   4 mph 79 % 0 in
01:37 62.8 °F 56.5 °F 30 in Calm   4 mph 80 % 0 in
01:42 62.6 °F 56.3 °F 30 in Calm   4 mph 80 % 0 in
01:47 62.2 °F 56.3 °F 30 in Calm   3 mph 81 % 0 in
01:52 62.1 °F 56.5 °F 30 in SSW 2 mph 4 mph 82 % 0 in
01:57 62.2 °F 56.7 °F 30 in SSW 3 mph 4 mph 82 % 0 in
02:02 62.4 °F 56.8 °F 30 in SW 5 mph 7 mph 82 % 0 in
02:07 62.8 °F 56.8 °F 30 in SW 3 mph 7 mph 81 % 0 in
02:12 63.1 °F 57.2 °F 30 in SSW 5 mph 8 mph 81 % 0 in
02:17 63.3 °F 57 °F 30 in SW 6 mph 10 mph 80 % 0 in
02:22 63.7 °F 57 °F 30 in SW 7 mph 12 mph 79 % 0 in
02:27 63.9 °F 56.8 °F 30 in WSW 4 mph 12 mph 78 % 0 in
02:32 63.9 °F 56.8 °F 30 in SSW 6 mph 12 mph 78 % 0 in
02:37 63.9 °F 56.8 °F 30 in SW 3 mph 11 mph 78 % 0 in
02:42 63.7 °F 56.7 °F 30 in SW 9 mph 11 mph 78 % 0 in
02:47 63.7 °F 56.7 °F 30 in WSW 9 mph 12 mph 78 % 0 in
02:52 63.7 °F 56.7 °F 30 in SW 10 mph 14 mph 78 % 0 in
02:57 63.7 °F 56.7 °F 30 in SW 9 mph 14 mph 78 % 0 in
03:02 63.9 °F 56.8 °F 30 in SW 5 mph 14 mph 78 % 0 in
03:12 63.7 °F 56.7 °F 30 in SSW 7 mph 13 mph 78 % 0 in
03:17 63.7 °F 56.7 °F 30 in SSW 7 mph 13 mph 78 % 0 in
03:22 63.9 °F 56.8 °F 30 in WSW 5 mph 13 mph 78 % 0 in
03:32 63.9 °F 56.8 °F 30 in WSW 3 mph 14 mph 78 % 0 in
03:37 63.7 °F 56.7 °F 30 in South 3 mph 14 mph 78 % 0 in
03:42 63.7 °F 56.7 °F 30 in SW 5 mph 13 mph 78 % 0 in
03:52 63.7 °F 56.7 °F 30 in SW 8 mph 11 mph 78 % 0 in
03:57 63.7 °F 57 °F 30 in SW 8 mph 11 mph 79 % 0 in
04:02 63.5 °F 56.8 °F 30 in SW 8 mph 11 mph 79 % 0 in
04:07 63.5 °F 57.2 °F 30 in SW 8 mph 13 mph 80 % 0 in
04:12 63.3 °F 57 °F 30 in SW 8 mph 13 mph 80 % 0 in
04:17 63.3 °F 57 °F 30 in WSW 4 mph 14 mph 80 % 0 in
04:22 63.3 °F 57.4 °F 30 in SW 11 mph 14 mph 81 % 0 in
04:32 63.1 °F 57.2 °F 30 in SW 14 mph 14 mph 81 % 0 in
04:37 63.3 °F 57.4 °F 30 in West 5 mph 14 mph 81 % 0 in
04:42 63.1 °F 57.6 °F 30 in SW 6 mph 14 mph 82 % 0 in
04:47 63.1 °F 57.6 °F 30 in West 3 mph 14 mph 82 % 0 in
04:52 63.1 °F 57.6 °F 30 in SW 6 mph 14 mph 82 % 0 in
04:57 63.1 °F 57.9 °F 30 in SSW 5 mph 13 mph 83 % 0 in
05:02 63 °F 57.7 °F 30 in SW 6 mph 13 mph 83 % 0 in
05:12 63.1 °F 57.9 °F 30 in SW 7 mph 11 mph 83 % 0 in
05:17 63 °F 58.1 °F 30 in SW 8 mph 12 mph 84 % 0 in
05:22 62.8 °F 57.9 °F 30 in SW 8 mph 12 mph 84 % 0 in
05:27 62.8 °F 58.3 °F 30 in SW 6 mph 11 mph 85 % 0 in
05:32 62.8 °F 58.3 °F 30 in South 6 mph 11 mph 85 % 0 in
05:42 63 °F 58.1 °F 30 in SW 6 mph 10 mph 84 % 0 in
05:52 63 °F 58.1 °F 30 in SW 5 mph 11 mph 84 % 0 in
05:57 63 °F 58.1 °F 30 in SSW 6 mph 11 mph 84 % 0 in
06:02 62.8 °F 57.9 °F 30 in SW 6 mph 11 mph 84 % 0 in
06:12 63 °F 58.1 °F 30 in SW 5 mph 15 mph 84 % 0 in
06:17 63.1 °F 58.3 °F 30 in SW 4 mph 15 mph 84 % 0 in
06:22 63.1 °F 58.3 °F 30 in SW 7 mph 11 mph 84 % 0 in
06:27 63.1 °F 57.9 °F 30 in SW 7 mph 11 mph 83 % 0 in
06:32 63.3 °F 58.1 °F 30 in SW 4 mph 15 mph 83 % 0 in
06:42 63.3 °F 58.1 °F 30 in SW 6 mph 15 mph 83 % 0 in
06:47 63.3 °F 58.1 °F 30 in WSW 10 mph 15 mph 83 % 0 in
06:52 63.1 °F 58.3 °F 30 in West 6 mph 16 mph 84 % 0 in
06:57 62.8 °F 58.3 °F 30 in WSW 4 mph 16 mph 85 % 0 in
07:02 62.6 °F 58.3 °F 30 in WSW 3 mph 16 mph 86 % 0 in
07:12 62.4 °F 58.5 °F 30 in SW 7 mph 12 mph 87 % 0 in
07:17 62.2 °F 58.3 °F 30 in SW 11 mph 11 mph 87 % 0 in
07:22 62.2 °F 58.6 °F 30 in WSW 5 mph 10 mph 88 % 0 in
07:32 61.7 °F 58.8 °F 30 in WSW 6 mph 15 mph 90 % 0 in
07:37 61.7 °F 58.8 °F 30 in SW 5 mph 15 mph 90 % 0 in
07:42 61.9 °F 59 °F 30 in SW 8 mph 15 mph 90 % 0 in
07:47 62.1 °F 59.2 °F 30 in WSW 7 mph 12 mph 90 % 0 in
07:52 62.4 °F 59.4 °F 30 in SW 5 mph 12 mph 90 % 0 in
08:02 62.8 °F 59.2 °F 30 in WSW 6 mph 12 mph 88 % 0 in
08:07 63 °F 59.4 °F 30 in SW 9 mph 13 mph 88 % 0 in
08:12 63 °F 59.4 °F 30 in SW 8 mph 13 mph 88 % 0 in
08:17 63 °F 59 °F 30 in SW 4 mph 13 mph 87 % 0 in
08:22 63.1 °F 59.5 °F 30 in SW 8 mph 15 mph 88 % 0 in
08:32 63.3 °F 59.4 °F 30 in SW 9 mph 15 mph 87 % 0 in
08:37 63.3 °F 59.4 °F 30 in SW 8 mph 16 mph 87 % 0 in
08:42 63.7 °F 59.7 °F 30 in West 6 mph 16 mph 87 % 0 in
08:47 63.9 °F 59.5 °F 30 in WSW 13 mph 16 mph 86 % 0 in
08:52 64 °F 59.7 °F 30 in WSW 8 mph 14 mph 86 % 0 in
09:02 64.2 °F 59.9 °F 30 in SW 8 mph 16 mph 86 % 0 in
09:07 64.2 °F 59.9 °F 30 in WSW 7 mph 15 mph 86 % 0 in
09:12 64 °F 60.1 °F 30 in SW 8 mph 15 mph 87 % 0 in
09:17 63.7 °F 60.4 °F 30 in WSW 8 mph 14 mph 89 % 0.01 in
09:22 63.1 °F 60.4 °F 30 in SW 5 mph 14 mph 91 % 0.01 in
09:32 63 °F 61 °F 30 in SW 10 mph 14 mph 93 % 0.02 in
09:42 63 °F 61 °F 30 in WSW 2 mph 14 mph 93 % 0.02 in
09:52 63.3 °F 61.3 °F 30 in SW 7 mph 11 mph 93 % 0.02 in
09:57 63.7 °F 61.7 °F 30 in WSW 6 mph 11 mph 93 % 0.02 in
10:02 64 °F 61.7 °F 30 in SW 3 mph 11 mph 92 % 0.02 in
10:12 64.8 °F 62.4 °F 30 in WSW 7 mph 10 mph 92 % 0.02 in
10:17 64.9 °F 62.2 °F 30 in SW 10 mph 10 mph 91 % 0.02 in
10:22 65.5 °F 62.4 °F 30 in SW 13 mph 13 mph 90 % 0.02 in
10:27 65.5 °F 62.2 °F 30 in SW 11 mph 12 mph 89 % 0 in
10:32 65.3 °F 62.2 °F 30 in West 6 mph 16 mph 90 % 0 in
10:37 65.1 °F 62.4 °F 30 in SW 8 mph 16 mph 91 % 0.01 in
10:42 64.9 °F 62.2 °F 30 in SW 9 mph 16 mph 91 % 0.01 in
10:47 64.8 °F 62.1 °F 30 in South 9 mph 16 mph 91 % 0.01 in
10:52 64.9 °F 61.9 °F 30 in SSW 9 mph 16 mph 90 % 0.01 in
10:57 64.8 °F 62.1 °F 30 in SW 11 mph 16 mph 91 % 0.02 in
11:02 64.9 °F 61.9 °F 30 in SW 13 mph 16 mph 90 % 0.02 in
11:07 65.5 °F 62.4 °F 30 in SSW 8 mph 17 mph 90 % 0.02 in
11:12 65.7 °F 62.2 °F 30 in West 9 mph 21 mph 89 % 0.02 in
11:17 66 °F 63 °F 30 in West 15 mph 21 mph 90 % 0.02 in
11:22 66 °F 63 °F 30 in WSW 5 mph 21 mph 90 % 0.02 in
11:32 67.3 °F 63.9 °F 30 in West 6 mph 21 mph 89 % 0.02 in
11:37 67.6 °F 63.3 °F 30 in SW 15 mph 20 mph 86 % 0.01 in
11:42 67.8 °F 63.1 °F 30 in West 7 mph 20 mph 85 % 0.01 in
11:47 67.6 °F 62.2 °F 30 in West 7 mph 19 mph 83 % 0 in
11:57 68.4 °F 63 °F 30 in West 15 mph 19 mph 83 % 0 in
12:02 69.1 °F 63 °F 30 in SW 11 mph 18 mph 81 % 0 in
12:07 69.3 °F 62.8 °F 30 in WSW 9 mph 21 mph 80 % 0 in
12:12 68.4 °F 62.2 °F 30 in SW 9 mph 21 mph 81 % 0 in
12:17 68.5 °F 62.4 °F 30 in WSW 11 mph 18 mph 81 % 0 in
12:22 68.5 °F 62.4 °F 30 in SSE 4 mph 19 mph 81 % 0 in
12:27 68.4 °F 62.2 °F 30 in SW 5 mph 19 mph 81 % 0 in
12:32 68.7 °F 62.6 °F 30 in SW 5 mph 19 mph 81 % 0 in
12:37 70.2 °F 63.7 °F 30 in WNW 9 mph 19 mph 80 % 0 in
12:42 70.2 °F 63.3 °F 30 in WSW 7 mph 19 mph 79 % 0 in
12:47 70 °F 63.1 °F 30 in WSW 9 mph 19 mph 79 % 0 in
12:52 70 °F 63.1 °F 30 in West 9 mph 16 mph 79 % 0 in
12:57 69.6 °F 63.1 °F 30 in WSW 9 mph 16 mph 80 % 0 in
13:02 69.3 °F 62.4 °F 30 in SSW 5 mph 18 mph 79 % 0 in
13:07 69.1 °F 63 °F 30 in West 12 mph 18 mph 81 % 0 in
13:12 68.9 °F 63.1 °F 30 in WSW 14 mph 18 mph 82 % 0 in
13:17 69.1 °F 64 °F 30 in WSW 6 mph 18 mph 84 % 0 in
13:22 69.8 °F 63.7 °F 30 in SW 10 mph 17 mph 81 % 0 in
13:32 69.1 °F 62.2 °F 30 in SW 11 mph 22 mph 79 % 0 in
13:42 69.4 °F 63.3 °F 30 in NNW 6 mph 22 mph 81 % 0 in
13:52 68.5 °F 63.1 °F 30 in WSW 4 mph 16 mph 83 % 0 in
13:57 68.5 °F 63.9 °F 30 in West 10 mph 16 mph 85 % 0 in
14:02 68.4 °F 63 °F 30 in West 6 mph 17 mph 83 % 0 in
14:12 68.5 °F 62.8 °F 30 in WSW 9 mph 17 mph 82 % 0 in
14:17 69.3 °F 63.1 °F 30 in West 8 mph 16 mph 81 % 0 in
14:22 69.6 °F 63.1 °F 30 in West 10 mph 16 mph 80 % 0 in
14:27 70.3 °F 63.5 °F 30 in West 9 mph 13 mph 79 % 0 in
14:32 70.9 °F 64 °F 30 in WSW 7 mph 16 mph 79 % 0 in
14:37 71.1 °F 63.5 °F 30 in West 9 mph 16 mph 77 % 0 in
14:42 69.8 °F 61.9 °F 30.1 in WNW 7 mph 18 mph 76 % 0 in
14:47 69.1 °F 61.9 °F 30.1 in SW 6 mph 18 mph 78 % 0 in
14:52 68.9 °F 62.1 °F 30.1 in West 4 mph 18 mph 79 % 0 in
14:57 69.8 °F 62.2 °F 30.1 in WSW 6 mph 17 mph 77 % 0 in
15:02 70.5 °F 61.5 °F 30.1 in WSW 15 mph 18 mph 73 % 0 in
15:12 71.2 °F 61 °F 30.1 in WSW 12 mph 23 mph 70 % 0 in
15:17 70.9 °F 61.3 °F 30.1 in WSW 13 mph 26 mph 72 % 0 in
15:22 70.5 °F 61 °F 30.1 in WSW 10 mph 26 mph 72 % 0 in
15:32 70.7 °F 61.7 °F 30.1 in West 9 mph 17 mph 73 % 0 in
15:37 70.9 °F 61 °F 30.1 in WNW 8 mph 16 mph 71 % 0 in
15:42 70.7 °F 60.4 °F 30.1 in WNW 9 mph 16 mph 70 % 0 in
15:47 70.9 °F 60.6 °F 30.1 in SW 6 mph 16 mph 70 % 0 in
15:52 71.1 °F 59.9 °F 30.1 in West 4 mph 16 mph 68 % 0 in
15:57 71.1 °F 59.9 °F 30.1 in West 6 mph 16 mph 68 % 0 in
16:02 70.9 °F 60.3 °F 30.1 in West 6 mph 16 mph 69 % 0 in
16:12 70.2 °F 59.2 °F 30.1 in West 7 mph 15 mph 68 % 0 in
16:17 70.2 °F 59.5 °F 30.1 in WNW 8 mph 15 mph 69 % 0 in
16:22 70.2 °F 60.3 °F 30.1 in West 12 mph 14 mph 71 % 0 in
16:32 70.2 °F 60.3 °F 30.1 in WSW 10 mph 13 mph 71 % 0 in
16:42 70.2 °F 60.6 °F 30.1 in WNW 6 mph 13 mph 72 % 0 in
16:47 69.6 °F 60.6 °F 30.1 in West 7 mph 12 mph 73 % 0 in
16:57 68.5 °F 60.3 °F 30.1 in West 5 mph 14 mph 75 % 0 in
17:02 68.7 °F 60.4 °F 30.1 in WSW 9 mph 14 mph 75 % 0 in
17:12 69.3 °F 60.3 °F 30.1 in WNW 8 mph 11 mph 73 % 0 in
17:17 69.3 °F 60.3 °F 30.1 in WNW 10 mph 12 mph 73 % 0 in
17:22 69.4 °F 60.4 °F 30.1 in West 6 mph 13 mph 73 % 0 in
17:32 69.6 °F 60.3 °F 30.1 in WNW 3 mph 13 mph 72 % 0 in
17:37 69.8 °F 60.4 °F 30.1 in WSW 3 mph 10 mph 72 % 0 in
17:42 70.2 °F 60.6 °F 30.1 in West 6 mph 11 mph 72 % 0 in
17:47 70 °F 60.6 °F 30.1 in WSW 7 mph 11 mph 72 % 0 in
17:52 69.8 °F 60.8 °F 30.1 in West 6 mph 11 mph 73 % 0 in
18:02 69.8 °F 60.8 °F 30.1 in West 6 mph 13 mph 73 % 0 in
18:12 70 °F 60.6 °F 30.1 in West 9 mph 12 mph 72 % 0 in
18:17 69.6 °F 60.6 °F 30.1 in WSW 5 mph 12 mph 73 % 0 in
18:22 69.4 °F 60.8 °F 30.1 in West 7 mph 12 mph 74 % 0 in
18:32 69.3 °F 60.6 °F 30.1 in West 7 mph 15 mph 74 % 0 in
18:42 68.4 °F 60.8 °F 30.1 in WSW 6 mph 13 mph 77 % 0 in
18:52 67.5 °F 61.2 °F 30.1 in WSW 6 mph 14 mph 80 % 0 in
18:57 67.5 °F 61.2 °F 30.1 in West 4 mph 14 mph 80 % 0 in
19:02 67.5 °F 60.8 °F 30.1 in WSW 4 mph 11 mph 79 % 0 in
19:07 67.6 °F 61.2 °F 30.1 in WSW 4 mph 9 mph 80 % 0 in
19:12 67.6 °F 61 °F 30.1 in SW 6 mph 10 mph 79 % 0 in
19:17 67.8 °F 61 °F 30.1 in WSW 9 mph 11 mph 79 % 0 in
19:22 67.8 °F 61 °F 30.1 in West 7 mph 12 mph 79 % 0 in
19:32 67.8 °F 61 °F 30.1 in WSW 8 mph 12 mph 79 % 0 in
19:37 68 °F 61.2 °F 30.1 in WNW 3 mph 11 mph 79 % 0 in
19:42 68 °F 60.8 °F 30.1 in West 4 mph 11 mph 78 % 0 in
19:52 68 °F 61.2 °F 30.1 in West 8 mph 16 mph 79 % 0 in
19:57 67.8 °F 61 °F 30.1 in West 7 mph 16 mph 79 % 0 in
20:02 67.8 °F 61 °F 30.1 in WNW 6 mph 16 mph 79 % 0 in
20:07 67.6 °F 61.2 °F 30.2 in WNW 7 mph 13 mph 80 % 0 in
20:12 67.6 °F 61.2 °F 30.2 in WNW 5 mph 12 mph 80 % 0 in
20:17 67.3 °F 61.2 °F 30.2 in WNW 4 mph 12 mph 81 % 0 in
20:22 67.1 °F 61.3 °F 30.2 in WNW 5 mph 11 mph 82 % 0 in
20:27 66.7 °F 61.3 °F 30.2 in West 6 mph 11 mph 83 % 0 in
20:32 66.6 °F 61.5 °F 30.2 in WNW 3 mph 9 mph 84 % 0 in
20:37 66.2 °F 61.5 °F 30.2 in Calm   9 mph 85 % 0 in
20:42 66 °F 61.7 °F 30.2 in Calm   8 mph 86 % 0 in
20:47 65.8 °F 61.5 °F 30.2 in WNW 2 mph 6 mph 86 % 0 in
20:52 65.7 °F 61.3 °F 30.2 in NW 1 mph 6 mph 86 % 0 in
20:57 65.7 °F 61.7 °F 30.2 in NW 2 mph 6 mph 87 % 0 in
21:02 65.7 °F 61.3 °F 30.2 in Calm   6 mph 86 % 0 in
21:12 65.7 °F 61.3 °F 30.2 in Calm   6 mph 86 % 0 in
21:17 65.8 °F 61.5 °F 30.2 in West 1 mph 4 mph 86 % 0 in
21:22 65.7 °F 61.3 °F 30.2 in Calm   2 mph 86 % 0 in
21:32 65.8 °F 61.2 °F 30.2 in Calm   1 mph 85 % 0 in
21:37 65.8 °F 61.5 °F 30.2 in Calm   1 mph 86 % 0 in
21:42 65.8 °F 61.5 °F 30.2 in West 1 mph 1 mph 86 % 0 in
21:52 65.7 °F 61.7 °F 30.2 in Calm   1 mph 87 % 0 in
21:57 65.5 °F 61.5 °F 30.2 in Calm   1 mph 87 % 0 in
22:02 65.3 °F 61.3 °F 30.2 in Calm   1 mph 87 % 0 in
22:12 65.3 °F 61.3 °F 30.2 in Calm   1 mph 87 % 0 in
22:17 65.3 °F 61.3 °F 30.2 in SSW 1 mph 1 mph 87 % 0 in
22:22 65.1 °F 61.5 °F 30.2 in Calm   1 mph 88 % 0 in
22:32 65.1 °F 61.2 °F 30.2 in SW 2 mph 3 mph 87 % 0 in
22:37 65.1 °F 60.8 °F 30.2 in WSW 1 mph 3 mph 86 % 0 in
22:42 65.3 °F 61 °F 30.2 in West 1 mph 3 mph 86 % 0 in
22:47 65.5 °F 61.2 °F 30.2 in WSW 1 mph 3 mph 86 % 0 in
22:52 65.5 °F 61.2 °F 30.2 in WSW 1 mph 3 mph 86 % 0 in
23:02 65.1 °F 61.2 °F 30.2 in WSW 2 mph 2 mph 87 % 0 in
23:12 64.9 °F 61 °F 30.2 in WSW 2 mph 3 mph 87 % 0 in
23:32 64.9 °F 61.3 °F 30.2 in Calm   3 mph 88 % 0 in
23:37 64.8 °F 61.2 °F 30.2 in Calm   2 mph 88 % 0 in
23:47 64.6 °F 61.3 °F 30.2 in Calm     89 % 0 in
23:52 64.6 °F 61.3 °F 30.2 in SW 2 mph 2 mph 89 % 0 in
Meteo18
Compliments of Weather Underground - 4 mb

Script developed by  Jim McMurry - jmcmurry@mwt.net Adapted for the template by  Wim van der Kuil - Leuven-Template.eu

You find our weather info also at:

European Weather Network

Weather Underground

Equipment we use:

Weather-station
Davis Vue

Weather-program
Meteohub

Weather-server
Raspberry PI 2 B+

Provider
1 and 1

Davis Vue

Meteohub

Raspberry PI 2 B+

1 and 1